Time,TemperatureF,DewpointF,PressureIn,WindDirection,WindDirectionDegrees,WindSpeedMPH,WindSpeedGustMPH,Humidity,HourlyPrecipIn,Conditions,Clouds,dailyrainin,SoftwareType,DateUTC
2013-01-01 00:00:00,39.2,20.1,29.94,SSW,207,2.0,3.0,46,0.00,OVC,OVC,0.00,WeatherDisplay:10.31,2013-01-01 05:00:00,
2013-01-01 00:10:00,39.3,20.2,29.94,South,180,3.0,5.0,46,0.00,OVC,OVC,0.00,WeatherDisplay:10.31,2013-01-01 05:10:00,
2013-01-01 00:20:00,39.3,20.2,29.94,South,180,3.0,5.0,46,0.00,OVC,OVC,0.00,WeatherDisplay:10.31,2013-01-01 05:20:00,
2013-01-01 00:25:00,39.3,20.2,29.94,South,180,6.0,9.0,46,0.00,OVC,OVC,0.00,WeatherDisplay:10.31,2013-01-01 05:25:00,
2013-01-01 00:30:00,39.2,20.1,29.93,South,184,5.0,9.0,46,0.00,OVC,OVC,0.00,WeatherDisplay:10.31,2013-01-01 05:30:00,
2013-01-01 00:40:00,39.2,20.1,29.93,SSW,202,3.0,6.0,46,0.00,OVC,OVC,0.00,WeatherDisplay:10.31,2013-01-01 05:40:00,
2013-01-01 00:45:00,39.2,20.1,29.93,SSW,202,5.0,6.0,46,0.00,OVC,OVC,0.00,WeatherDisplay:10.31,2013-01-01 05:45:00,
2013-01-01 00:50:00,39.2,20.1,29.94,SSW,202,6.0,7.0,46,0.00,OVC,OVC,0.00,WeatherDisplay:10.31,2013-01-01 05:50:00,
2013-01-01 01:00:00,39.3,19.7,29.94,SSW,204,7.0,9.0,45,0.00,OVC,OVC,0.00,WeatherDisplay:10.31,2013-01-01 06:00:00,
2013-01-01 01:10:00,39.6,18.9,29.93,SW,218,8.0,10.0,43,0.00,OVC,OVC,0.00,WeatherDisplay:10.31,2013-01-01 06:10:00,
2013-01-01 01:15:00,39.8,19.1,29.94,SW,223,7.0,12.0,43,0.00,OVC,OVC,0.00,WeatherDisplay:10.31,2013-01-01 06:15:00,
2013-01-01 01:25:00,40.1,18.8,29.93,SW,225,5.0,9.0,42,0.00,OVC,OVC,0.00,WeatherDisplay:10.31,2013-01-01 06:25:00,
2013-01-01 01:30:00,40.2,18.3,29.93,SW,227,6.0,8.0,41,0.00,OVC,OVC,0.00,WeatherDisplay:10.31,2013-01-01 06:30:00,
2013-01-01 01:40:00,40.5,18.6,29.93,SW,228,6.0,6.0,41,0.00,OVC,OVC,0.00,WeatherDisplay:10.31,2013-01-01 06:40:00,
2013-01-01 01:50:00,40.6,18.1,29.93,SW,222,6.0,9.0,40,0.00,OVC,OVC,0.00,WeatherDisplay:10.31,2013-01-01 06:50:00,
2013-01-01 02:00:00,40.8,18.3,29.94,SW,221,5.0,9.0,40,0.00,OVC,OVC,0.00,WeatherDisplay:10.31,2013-01-01 07:00:00,
2013-01-01 02:10:00,40.8,18.9,29.94,SW,223,5.0,7.0,41,0.00,OVC,OVC,0.00,WeatherDisplay:10.31,2013-01-01 07:10:00,
2013-01-01 02:15:00,40.9,18.4,29.94,SW,216,5.0,10.0,40,0.00,OVC,OVC,0.00,WeatherDisplay:10.31,2013-01-01 07:15:00,
2013-01-01 02:20:00,40.9,18.4,29.94,SW,216,5.0,10.0,40,0.00,OVC,OVC,0.00,WeatherDisplay:10.31,2013-01-01 07:20:00,
2013-01-01 02:25:00,40.9,18.4,29.94,SSW,206,6.0,10.0,40,0.00,OVC,OVC,0.00,WeatherDisplay:10.31,2013-01-01 07:25:00,
2013-01-01 02:30:00,40.9,19.0,29.94,SSW,202,5.0,12.0,41,0.00,OVC,OVC,0.00,WeatherDisplay:10.31,2013-01-01 07:30:00,
2013-01-01 02:35:00,40.8,18.9,29.95,SSW,205,8.0,10.0,41,0.00,OVC,OVC,0.00,WeatherDisplay:10.31,2013-01-01 07:35:00,
2013-01-01 02:40:00,40.8,19.5,29.94,SSW,207,6.0,12.0,42,0.00,OVC,OVC,0.00,WeatherDisplay:10.31,2013-01-01 07:40:00,
2013-01-01 02:50:00,40.6,19.3,29.93,SSW,202,3.0,7.0,42,0.00,OVC,OVC,0.00,WeatherDisplay:10.31,2013-01-01 07:50:00,
2013-01-01 03:00:00,40.3,19.5,29.93,SSW,202,3.0,6.0,43,0.00,OVC,OVC,0.00,WeatherDisplay:10.31,2013-01-01 08:00:00,
2013-01-01 03:05:00,40.3,19.5,29.93,SSW,202,5.0,6.0,43,0.00,OVC,OVC,0.00,WeatherDisplay:10.31,2013-01-01 08:05:00,
2013-01-01 03:10:00,40.2,19.5,29.93,SSW,202,3.0,5.0,43,0.00,OVC,OVC,0.00,WeatherDisplay:10.31,2013-01-01 08:10:00,
2013-01-01 03:20:00,40.1,19.4,29.93,SSW,202,3.0,3.0,43,0.00,OVC,OVC,0.00,WeatherDisplay:10.31,2013-01-01 08:20:00,
2013-01-01 03:30:00,39.9,19.7,29.94,SSW,202,5.0,6.0,44,0.00,OVC,OVC,0.00,WeatherDisplay:10.31,2013-01-01 08:30:00,
2013-01-01 03:35:00,39.9,19.7,29.93,SSW,202,5.0,9.0,44,0.00,OVC,OVC,0.00,WeatherDisplay:10.31,2013-01-01 08:35:00,
2013-01-01 03:40:00,39.9,19.7,29.93,SSW,202,3.0,6.0,44,0.00,OVC,OVC,0.00,WeatherDisplay:10.31,2013-01-01 08:40:00,
2013-01-01 03:50:00,39.9,19.7,29.93,SSW,202,2.0,5.0,44,0.00,OVC,OVC,0.00,WeatherDisplay:10.31,2013-01-01 08:50:00,
2013-01-01 04:00:00,39.8,20.2,29.93,SSW,202,5.0,6.0,45,0.00,OVC,OVC,0.00,WeatherDisplay:10.31,2013-01-01 09:00:00,
2013-01-01 04:05:00,39.8,20.2,29.93,SSW,205,5.0,8.0,45,0.00,OVC,OVC,0.00,WeatherDisplay:10.31,2013-01-01 09:05:00,
2013-01-01 04:10:00,39.9,19.7,29.93,WSW,240,5.0,7.0,44,0.00,OVC,OVC,0.00,WeatherDisplay:10.31,2013-01-01 09:10:00,
2013-01-01 04:20:00,40.1,20.4,29.92,West,270,3.0,6.0,45,0.00,OVC,OVC,0.00,WeatherDisplay:10.31,2013-01-01 09:20:00,
2013-01-01 04:30:00,40.1,20.4,29.92,West,270,2.0,3.0,45,0.00,OVC,OVC,0.00,WeatherDisplay:10.31,2013-01-01 09:30:00,
2013-01-01 04:40:00,40.1,21.0,29.91,West,263,5.0,6.0,46,0.00,OVC,OVC,0.00,WeatherDisplay:10.31,2013-01-01 09:40:00,
2013-01-01 04:50:00,39.9,21.3,29.91,WSW,247,3.0,3.0,47,0.00,OVC,OVC,0.00,WeatherDisplay:10.31,2013-01-01 09:50:00,
2013-01-01 05:00:00,39.9,20.8,29.92,WSW,247,3.0,6.0,46,0.00,OVC,OVC,0.00,WeatherDisplay:10.31,2013-01-01 10:00:00,
2013-01-01 05:10:00,40.1,21.0,29.91,WSW,247,5.0,7.0,46,0.00,OVC,OVC,0.00,WeatherDisplay:10.31,2013-01-01 10:10:00,
2013-01-01 05:20:00,40.2,21.0,29.92,West,264,6.0,8.0,46,0.00,OVC,OVC,0.00,WeatherDisplay:10.31,2013-01-01 10:20:00,
2013-01-01 05:30:00,40.2,21.0,29.93,West,270,5.0,7.0,46,0.00,OVC,OVC,0.00,WeatherDisplay:10.31,2013-01-01 10:30:00,
2013-01-01 05:35:00,40.3,21.1,29.93,WSW,252,5.0,6.0,46,0.00,OVC,OVC,0.00,WeatherDisplay:10.31,2013-01-01 10:35:00,
2013-01-01 05:40:00,40.3,21.1,29.92,WSW,245,5.0,6.0,46,0.00,OVC,OVC,0.00,WeatherDisplay:10.31,2013-01-01 10:40:00,
2013-01-01 05:50:00,40.3,21.1,29.92,West,270,3.0,6.0,46,0.00,OVC,OVC,0.00,WeatherDisplay:10.31,2013-01-01 10:50:00,
2013-01-01 05:55:00,40.5,20.8,29.92,West,270,5.0,7.0,45,0.00,OVC,OVC,0.00,WeatherDisplay:10.31,2013-01-01 10:55:00,
2013-01-01 06:05:00,40.6,20.9,29.92,West,270,5.0,5.0,45,0.00,OVC,OVC,0.00,WeatherDisplay:10.31,2013-01-01 11:05:00,
2013-01-01 06:10:00,40.6,20.9,29.92,West,270,3.0,3.0,45,0.00,OVC,OVC,0.00,WeatherDisplay:10.31,2013-01-01 11:10:00,
2013-01-01 06:20:00,40.6,21.4,29.92,West,270,2.0,3.0,46,0.00,OVC,OVC,0.00,WeatherDisplay:10.31,2013-01-01 11:20:00,
2013-01-01 06:30:00,40.6,21.4,29.94,West,270,3.0,6.0,46,0.00,OVC,OVC,0.00,WeatherDisplay:10.31,2013-01-01 11:30:00,
2013-01-01 06:40:00,40.5,21.3,29.93,West,274,2.0,5.0,46,0.00,OVC,OVC,0.00,WeatherDisplay:10.31,2013-01-01 11:40:00,
2013-01-01 06:45:00,40.5,21.3,29.92,WNW,285,2.0,5.0,46,0.00,OVC,OVC,0.00,WeatherDisplay:10.31,2013-01-01 11:45:00,
2013-01-01 06:55:00,40.5,20.8,29.93,WNW,292,3.0,6.0,45,0.00,OVC,OVC,0.00,WeatherDisplay:10.31,2013-01-01 11:55:00,
2013-01-01 07:00:00,40.5,20.8,29.93,WNW,292,2.0,6.0,45,0.00,OVC,OVC,0.00,WeatherDisplay:10.31,2013-01-01 12:00:00,
2013-01-01 07:05:00,40.5,20.8,29.93,WNW,292,1.0,3.0,45,0.00,OVC,OVC,0.00,WeatherDisplay:10.31,2013-01-01 12:05:00,
2013-01-01 07:10:00,40.5,20.8,29.92,WNW,292,0.0,3.0,45,0.00,OVC,OVC,0.00,WeatherDisplay:10.31,2013-01-01 12:10:00,
2013-01-01 07:20:00,40.3,20.6,29.92,WNW,292,2.0,3.0,45,0.00,OVC,OVC,0.00,WeatherDisplay:10.31,2013-01-01 12:20:00,
2013-01-01 07:30:00,40.3,20.6,29.92,WNW,292,1.0,3.0,45,0.00,OVC,OVC,0.00,WeatherDisplay:10.31,2013-01-01 12:30:00,
2013-01-01 07:40:00,40.3,21.1,29.93,WNW,292,2.0,3.0,46,0.00,OVC,OVC,0.00,WeatherDisplay:10.31,2013-01-01 12:40:00,
2013-01-01 07:50:00,40.3,21.1,29.92,WNW,292,0.0,0.0,46,0.00,OVC,OVC,0.00,WeatherDisplay:10.31,2013-01-01 12:50:00,
2013-01-01 08:00:00,40.3,21.6,29.93,WNW,292,1.0,3.0,47,0.00,OVC,OVC,0.00,WeatherDisplay:10.31,2013-01-01 13:00:00,
2013-01-01 08:10:00,40.3,23.6,29.93,WNW,292,0.0,1.0,51,0.00,OVC,OVC,0.00,WeatherDisplay:10.31,2013-01-01 13:10:00,
2013-01-01 08:20:00,40.2,24.0,29.93,WNW,292,1.0,2.0,52,0.00,OVC,OVC,0.00,WeatherDisplay:10.31,2013-01-01 13:20:00,
2013-01-01 08:30:00,40.2,24.0,29.93,WNW,292,1.0,3.0,52,0.00,OVC,OVC,0.00,WeatherDisplay:10.31,2013-01-01 13:30:00,
2013-01-01 08:40:00,40.1,23.4,29.93,WNW,292,0.0,2.0,51,0.00,OVC,OVC,0.00,WeatherDisplay:10.31,2013-01-01 13:40:00,
2013-01-01 08:50:00,40.1,23.4,29.92,WNW,292,0.0,2.0,51,0.00,OVC,OVC,0.00,WeatherDisplay:10.31,2013-01-01 13:50:00,
2013-01-01 09:00:00,40.1,23.4,29.92,WNW,292,0.0,1.0,51,0.00,OVC,OVC,0.00,WeatherDisplay:10.31,2013-01-01 14:00:00,
2013-01-01 09:05:00,40.1,23.4,29.93,WNW,292,0.0,1.0,51,0.00,OVC,OVC,0.00,WeatherDisplay:10.31,2013-01-01 14:05:00,
2013-01-01 09:10:00,40.2,23.5,29.93,WNW,292,0.0,1.0,51,0.00,OVC,OVC,0.00,WeatherDisplay:10.31,2013-01-01 14:10:00,
2013-01-01 09:20:00,40.3,23.6,29.94,WNW,292,0.0,3.0,51,0.00,OVC,OVC,0.00,WeatherDisplay:10.31,2013-01-01 14:20:00,
2013-01-01 09:30:00,40.4,23.7,29.94,WNW,292,0.0,3.0,51,0.00,OVC,OVC,0.00,WeatherDisplay:10.31,2013-01-01 14:30:00,
2013-01-01 09:40:00,40.6,24.8,29.94,WNW,292,0.0,1.0,53,0.00,OVC,OVC,0.00,WeatherDisplay:10.31,2013-01-01 14:40:00,
2013-01-01 09:50:00,40.8,24.1,29.94,WNW,292,1.0,2.0,51,0.00,OVC,OVC,0.00,WeatherDisplay:10.31,2013-01-01 14:50:00,
2013-01-01 10:00:00,41.0,23.7,29.94,WNW,292,1.0,2.0,50,0.00,OVC,OVC,0.00,WeatherDisplay:10.31,2013-01-01 15:00:00,
2013-01-01 10:10:00,41.2,24.4,29.93,WNW,292,1.0,3.0,51,0.00,OVC,OVC,0.00,WeatherDisplay:10.31,2013-01-01 15:10:00,
2013-01-01 10:20:00,41.3,24.5,29.94,WNW,302,2.0,5.0,51,0.00,OVC,OVC,0.00,WeatherDisplay:10.31,2013-01-01 15:20:00,
2013-01-01 10:30:00,41.6,24.8,29.94,NNW,331,2.0,6.0,51,0.00,OVC,OVC,0.00,WeatherDisplay:10.31,2013-01-01 15:30:00,
2013-01-01 10:40:00,41.8,25.0,29.93,NNW,328,0.0,6.0,51,0.00,OVC,OVC,0.00,WeatherDisplay:10.31,2013-01-01 15:40:00,
2013-01-01 10:50:00,41.8,25.0,29.93,NW,315,1.0,6.0,51,0.00,OVC,OVC,0.00,WeatherDisplay:10.31,2013-01-01 15:50:00,
2013-01-01 11:00:00,41.9,25.5,29.94,NNW,337,2.0,5.0,52,0.00,OVC,OVC,0.00,WeatherDisplay:10.31,2013-01-01 16:00:00,
2013-01-01 11:05:00,42.1,25.7,29.94,NNW,337,0.0,5.0,52,0.00,OVC,OVC,0.00,WeatherDisplay:10.31,2013-01-01 16:05:00,
2013-01-01 11:10:00,42.1,25.7,29.93,NNW,337,2.0,3.0,52,0.00,OVC,OVC,0.00,WeatherDisplay:10.31,2013-01-01 16:10:00,
2013-01-01 11:20:00,42.2,25.8,29.92,NNW,334,3.0,5.0,52,0.00,OVC,OVC,0.00,WeatherDisplay:10.31,2013-01-01 16:20:00,
2013-01-01 11:30:00,42.3,25.9,29.92,NW,318,1.0,5.0,52,0.00,OVC,OVC,0.00,WeatherDisplay:10.31,2013-01-01 16:30:00,
2013-01-01 11:40:00,42.5,26.1,29.92,NW,304,5.0,7.0,52,0.00,OVC,OVC,0.00,WeatherDisplay:10.31,2013-01-01 16:40:00,
2013-01-01 11:45:00,42.5,26.1,29.92,WNW,296,3.0,6.0,52,0.00,OVC,OVC,0.00,WeatherDisplay:10.31,2013-01-01 16:45:00,
2013-01-01 11:50:00,42.5,26.6,29.91,NW,305,2.0,7.0,53,0.00,OVC,OVC,0.00,WeatherDisplay:10.31,2013-01-01 16:50:00,
2013-01-01 12:00:00,42.5,26.6,29.91,NW,315,1.0,5.0,53,0.00,OVC,OVC,0.00,WeatherDisplay:10.31,2013-01-01 17:00:00,
2013-01-01 12:05:00,42.6,26.6,29.91,NW,315,1.0,3.0,53,0.00,OVC,OVC,0.00,WeatherDisplay:10.31,2013-01-01 17:05:00,
2013-01-01 12:10:00,42.6,26.6,29.91,NW,315,0.0,2.0,53,0.00,OVC,OVC,0.00,WeatherDisplay:10.31,2013-01-01 17:10:00,
2013-01-01 12:20:00,42.8,26.8,29.91,NW,304,2.0,5.0,53,0.00,OVC,OVC,0.00,WeatherDisplay:10.31,2013-01-01 17:20:00,
2013-01-01 12:30:00,43.1,27.1,29.89,WNW,302,0.0,5.0,53,0.00,OVC,OVC,0.00,WeatherDisplay:10.31,2013-01-01 17:30:00,
2013-01-01 12:40:00,43.2,27.2,29.89,NW,315,2.0,3.0,53,0.00,OVC,OVC,0.00,WeatherDisplay:10.31,2013-01-01 17:40:00,
2013-01-01 12:45:00,43.3,27.3,29.89,NW,315,2.0,7.0,53,0.00,OVC,OVC,0.00,WeatherDisplay:10.31,2013-01-01 17:45:00,
2013-01-01 12:50:00,43.3,27.3,29.88,NW,315,1.0,3.0,53,0.00,OVC,OVC,0.00,WeatherDisplay:10.31,2013-01-01 17:50:00,
2013-01-01 13:00:00,43.5,27.0,29.88,NW,323,1.0,6.0,52,0.00,OVC,OVC,0.00,WeatherDisplay:10.31,2013-01-01 18:00:00,
2013-01-01 13:05:00,43.6,27.6,29.87,NNW,331,1.0,3.0,53,0.00,OVC,OVC,0.00,WeatherDisplay:10.31,2013-01-01 18:05:00,
2013-01-01 13:10:00,43.6,27.6,29.87,NNW,337,1.0,2.0,53,0.00,OVC,OVC,0.00,WeatherDisplay:10.31,2013-01-01 18:10:00,
2013-01-01 13:15:00,43.6,27.6,29.87,NNW,337,1.0,3.0,53,0.00,OVC,OVC,0.00,WeatherDisplay:10.31,2013-01-01 18:15:00,
2013-01-01 13:20:00,43.6,27.6,29.86,NNW,337,1.0,3.0,53,0.00,OVC,OVC,0.00,WeatherDisplay:10.31,2013-01-01 18:20:00,
2013-01-01 13:30:00,43.8,27.8,29.86,NNW,337,2.0,3.0,53,0.00,OVC,OVC,0.00,WeatherDisplay:10.31,2013-01-01 18:30:00,
2013-01-01 13:40:00,43.8,27.8,29.85,NW,325,0.0,6.0,53,0.00,OVC,OVC,0.00,WeatherDisplay:10.31,2013-01-01 18:40:00,
2013-01-01 13:50:00,43.8,27.8,29.85,NW,315,2.0,3.0,53,0.00,OVC,OVC,0.00,WeatherDisplay:10.31,2013-01-01 18:50:00,
2013-01-01 13:55:00,43.8,27.8,29.85,NW,315,3.0,6.0,53,0.00,OVC,OVC,0.00,WeatherDisplay:10.31,2013-01-01 18:55:00,
2013-01-01 14:05:00,43.6,27.6,29.86,NW,323,2.0,7.0,53,0.00,OVC,OVC,0.00,WeatherDisplay:10.31,2013-01-01 19:05:00,
2013-01-01 14:10:00,43.6,27.6,29.86,NW,322,5.0,6.0,53,0.00,OVC,OVC,0.00,WeatherDisplay:10.31,2013-01-01 19:10:00,
2013-01-01 14:20:00,43.6,28.0,29.87,NNW,337,2.0,3.0,54,0.00,OVC,OVC,0.00,WeatherDisplay:10.31,2013-01-01 19:20:00,
2013-01-01 14:30:00,43.6,28.5,29.87,NNW,337,1.0,3.0,55,0.00,OVC,OVC,0.00,WeatherDisplay:10.31,2013-01-01 19:30:00,
2013-01-01 14:35:00,43.6,28.0,29.86,NNW,337,2.0,3.0,54,0.00,OVC,OVC,0.00,WeatherDisplay:10.31,2013-01-01 19:35:00,
2013-01-01 14:40:00,43.6,28.5,29.86,NNW,337,0.0,2.0,55,0.00,OVC,OVC,0.00,WeatherDisplay:10.31,2013-01-01 19:40:00,
2013-01-01 14:50:00,43.6,28.0,29.87,NNW,344,2.0,5.0,54,0.00,OVC,OVC,0.00,WeatherDisplay:10.31,2013-01-01 19:50:00,
2013-01-01 15:00:00,43.6,28.0,29.88,NNW,342,5.0,5.0,54,0.00,OVC,OVC,0.00,WeatherDisplay:10.31,2013-01-01 20:00:00,
2013-01-01 15:10:00,43.6,28.0,29.87,NNW,330,3.0,7.0,54,0.00,OVC,OVC,0.00,WeatherDisplay:10.31,2013-01-01 20:10:00,
2013-01-01 15:20:00,43.5,27.9,29.88,NNW,337,2.0,6.0,54,0.00,OVC,OVC,0.00,WeatherDisplay:10.31,2013-01-01 20:20:00,
2013-01-01 15:30:00,43.5,28.4,29.89,NNW,337,1.0,5.0,55,0.00,OVC,OVC,0.00,WeatherDisplay:10.31,2013-01-01 20:30:00,
2013-01-01 15:40:00,43.5,28.4,29.88,NNW,337,1.0,2.0,55,0.00,OVC,OVC,0.00,WeatherDisplay:10.31,2013-01-01 20:40:00,
2013-01-01 15:50:00,43.5,28.4,29.87,NNW,337,1.0,3.0,55,0.00,OVC,OVC,0.00,WeatherDisplay:10.31,2013-01-01 20:50:00,
2013-01-01 16:00:00,43.3,27.8,29.88,NNW,337,1.0,3.0,54,0.00,OVC,OVC,0.00,WeatherDisplay:10.31,2013-01-01 21:00:00,
2013-01-01 16:05:00,43.3,28.2,29.88,NNW,337,3.0,6.0,55,0.00,OVC,OVC,0.00,WeatherDisplay:10.31,2013-01-01 21:05:00,
2013-01-01 16:10:00,43.3,28.2,29.88,NNW,337,1.0,3.0,55,0.00,OVC,OVC,0.00,WeatherDisplay:10.31,2013-01-01 21:10:00,
2013-01-01 16:20:00,43.2,28.1,29.89,NNW,337,0.0,5.0,55,0.00,OVC,OVC,0.00,WeatherDisplay:10.31,2013-01-01 21:20:00,
2013-01-01 16:30:00,43.1,28.0,29.90,NNW,337,1.0,3.0,55,0.00,OVC,OVC,0.00,WeatherDisplay:10.31,2013-01-01 21:30:00,
2013-01-01 16:40:00,43.1,28.0,29.91,NW,309,2.0,5.0,55,0.00,OVC,OVC,0.00,WeatherDisplay:10.31,2013-01-01 21:40:00,
2013-01-01 16:50:00,42.9,28.3,29.90,WNW,292,0.0,3.0,56,0.00,OVC,OVC,0.00,WeatherDisplay:10.31,2013-01-01 21:50:00,
2013-01-01 17:00:00,42.8,28.2,29.90,WNW,292,0.0,3.0,56,0.00,OVC,OVC,0.00,WeatherDisplay:10.31,2013-01-01 22:00:00,
2013-01-01 17:05:00,42.8,28.2,29.90,WNW,292,2.0,5.0,56,0.00,OVC,OVC,0.00,WeatherDisplay:10.31,2013-01-01 22:05:00,
2013-01-01 17:10:00,42.6,28.0,29.90,WNW,292,0.0,3.0,56,0.00,OVC,OVC,0.00,WeatherDisplay:10.31,2013-01-01 22:10:00,
2013-01-01 17:20:00,42.6,28.4,29.90,WNW,292,0.0,3.0,57,0.00,OVC,OVC,0.00,WeatherDisplay:10.31,2013-01-01 22:20:00,
2013-01-01 17:30:00,42.5,28.3,29.91,NW,324,1.0,5.0,57,0.00,OVC,OVC,0.00,WeatherDisplay:10.31,2013-01-01 22:30:00,
2013-01-01 17:40:00,42.3,27.7,29.90,NW,319,1.0,5.0,56,0.00,OVC,OVC,0.00,WeatherDisplay:10.31,2013-01-01 22:40:00,
2013-01-01 17:50:00,42.3,28.1,29.91,NW,315,1.0,3.0,57,0.00,OVC,OVC,0.00,WeatherDisplay:10.31,2013-01-01 22:50:00,
2013-01-01 18:00:00,42.2,28.0,29.91,NW,315,2.0,3.0,57,0.00,OVC,OVC,0.00,WeatherDisplay:10.31,2013-01-01 23:00:00,
2013-01-01 18:05:00,42.2,28.0,29.91,NNW,327,5.0,8.0,57,0.00,OVC,OVC,0.00,WeatherDisplay:10.31,2013-01-01 23:05:00,
2013-01-01 18:10:00,42.2,28.0,29.92,NNW,334,2.0,6.0,57,0.00,OVC,OVC,0.00,WeatherDisplay:10.31,2013-01-01 23:10:00,
2013-01-01 18:20:00,42.2,28.0,29.92,NNW,337,3.0,9.0,57,0.00,OVC,OVC,0.00,WeatherDisplay:10.31,2013-01-01 23:20:00,
2013-01-01 18:30:00,42.2,28.0,29.92,NNW,341,3.0,7.0,57,0.00,OVC,OVC,0.00,WeatherDisplay:10.31,2013-01-01 23:30:00,
2013-01-01 18:40:00,42.1,27.9,29.92,NNW,346,6.0,12.0,57,0.00,OVC,OVC,0.00,WeatherDisplay:10.31,2013-01-01 23:40:00,
2013-01-01 18:50:00,41.9,27.3,29.92,NNW,342,3.0,12.0,56,0.00,OVC,OVC,0.00,WeatherDisplay:10.31,2013-01-01 23:50:00,
2013-01-01 19:00:00,41.8,27.2,29.93,NNW,339,6.0,10.0,56,0.00,OVC,OVC,0.00,WeatherDisplay:10.31,2013-01-02 00:00:00,
2013-01-01 19:05:00,41.8,27.2,29.93,NNW,342,7.0,12.0,56,0.00,OVC,OVC,0.00,WeatherDisplay:10.31,2013-01-02 00:05:00,
2013-01-01 19:10:00,41.6,27.1,29.94,NNW,342,5.0,10.0,56,0.00,OVC,OVC,0.00,WeatherDisplay:10.31,2013-01-02 00:10:00,
2013-01-01 19:20:00,41.6,27.1,29.94,NNW,334,5.0,12.0,56,0.00,OVC,OVC,0.00,WeatherDisplay:10.31,2013-01-02 00:20:00,
2013-01-01 19:30:00,41.5,27.4,29.94,NNW,341,6.0,7.0,57,0.00,OVC,OVC,0.00,WeatherDisplay:10.31,2013-01-02 00:30:00,
2013-01-01 19:40:00,41.3,27.2,29.94,North,352,3.0,6.0,57,0.00,OVC,OVC,0.00,WeatherDisplay:10.31,2013-01-02 00:40:00,
2013-01-01 19:50:00,41.3,27.2,29.93,North,355,5.0,7.0,57,0.00,OVC,OVC,0.00,WeatherDisplay:10.31,2013-01-02 00:50:00,
2013-01-01 20:00:00,41.2,27.5,29.93,North,360,2.0,6.0,58,0.00,OVC,OVC,0.00,WeatherDisplay:10.31,2013-01-02 01:00:00,
2013-01-01 20:05:00,41.2,27.5,29.93,NNW,348,3.0,12.0,58,0.00,OVC,OVC,0.00,WeatherDisplay:10.31,2013-01-02 01:05:00,
2013-01-01 20:10:00,41.1,27.4,29.92,NNW,346,6.0,12.0,58,0.00,OVC,OVC,0.00,WeatherDisplay:10.31,2013-01-02 01:10:00,
2013-01-01 20:20:00,40.9,27.2,29.92,NNW,343,5.0,12.0,58,0.00,OVC,OVC,0.00,WeatherDisplay:10.31,2013-01-02 01:20:00,
2013-01-01 20:30:00,40.8,27.6,29.93,NNW,340,7.0,12.0,59,0.00,OVC,OVC,0.00,WeatherDisplay:10.31,2013-01-02 01:30:00,
2013-01-01 20:40:00,40.5,27.3,29.94,NNW,339,8.0,12.0,59,0.00,OVC,OVC,0.00,WeatherDisplay:10.31,2013-01-02 01:40:00,
2013-01-01 20:50:00,40.3,27.5,29.93,NNW,340,9.0,12.0,60,0.00,OVC,OVC,0.00,WeatherDisplay:10.31,2013-01-02 01:50:00,
2013-01-01 21:00:00,40.2,27.4,29.94,NNW,336,5.0,18.0,60,0.00,OVC,OVC,0.00,WeatherDisplay:10.31,2013-01-02 02:00:00,
2013-01-01 21:05:00,40.2,27.4,29.94,NNW,337,8.0,10.0,60,0.00,OVC,OVC,0.00,WeatherDisplay:10.31,2013-01-02 02:05:00,
2013-01-01 21:10:00,40.2,27.4,29.94,NNW,336,7.0,12.0,60,0.00,OVC,OVC,0.00,WeatherDisplay:10.31,2013-01-02 02:10:00,
2013-01-01 21:20:00,40.1,27.3,29.94,NNW,331,3.0,13.0,60,0.00,OVC,OVC,0.00,WeatherDisplay:10.31,2013-01-02 02:20:00,
2013-01-01 21:25:00,40.1,27.7,29.94,NNW,335,7.0,12.0,61,0.00,OVC,OVC,0.00,WeatherDisplay:10.31,2013-01-02 02:25:00,
2013-01-01 21:30:00,39.9,27.5,29.94,NNW,338,7.0,10.0,61,0.00,OVC,OVC,0.00,WeatherDisplay:10.31,2013-01-02 02:30:00,
2013-01-01 21:40:00,39.9,27.5,29.95,NNW,342,2.0,10.0,61,0.00,OVC,OVC,0.00,WeatherDisplay:10.31,2013-01-02 02:40:00,
2013-01-01 21:50:00,39.8,27.4,29.95,NNW,344,7.0,12.0,61,0.00,OVC,OVC,0.00,WeatherDisplay:10.31,2013-01-02 02:50:00,
2013-01-01 22:00:00,39.8,27.4,29.96,North,352,6.0,12.0,61,0.00,OVC,OVC,0.00,WeatherDisplay:10.31,2013-01-02 03:00:00,
2013-01-01 22:10:00,39.8,27.4,29.95,NNW,347,3.0,10.0,61,0.00,OVC,OVC,0.00,WeatherDisplay:10.31,2013-01-02 03:10:00,
2013-01-01 22:20:00,39.6,27.2,29.96,NNW,337,3.0,10.0,61,0.00,OVC,OVC,0.00,WeatherDisplay:10.31,2013-01-02 03:20:00,
2013-01-01 22:30:00,39.6,27.2,29.96,NNW,344,3.0,10.0,61,0.00,OVC,OVC,0.00,WeatherDisplay:10.31,2013-01-02 03:30:00,
2013-01-01 22:40:00,39.5,27.5,29.96,NNW,336,3.0,6.0,62,0.00,OVC,OVC,0.00,WeatherDisplay:10.31,2013-01-02 03:40:00,
2013-01-01 22:45:00,39.5,27.5,29.96,NNW,340,6.0,8.0,62,0.00,OVC,OVC,0.00,WeatherDisplay:10.31,2013-01-02 03:45:00,
2013-01-01 22:50:00,39.5,27.5,29.95,NNW,343,2.0,10.0,62,0.00,OVC,OVC,0.00,WeatherDisplay:10.31,2013-01-02 03:50:00,
2013-01-01 23:00:00,39.3,27.4,29.95,North,355,8.0,12.0,62,0.00,OVC,OVC,0.00,WeatherDisplay:10.31,2013-01-02 04:00:00,
2013-01-01 23:05:00,39.3,27.4,29.95,North,351,5.0,12.0,62,0.00,OVC,OVC,0.00,WeatherDisplay:10.31,2013-01-02 04:05:00,
2013-01-01 23:10:00,39.3,27.4,29.94,North,354,8.0,12.0,62,0.00,OVC,OVC,0.00,WeatherDisplay:10.31,2013-01-02 04:10:00,
2013-01-01 23:20:00,39.2,27.3,29.95,NNW,346,9.0,13.0,62,0.00,OVC,OVC,0.00,WeatherDisplay:10.31,2013-01-02 04:20:00,
2013-01-01 23:25:00,39.1,27.2,29.95,NNW,340,6.0,10.0,62,0.00,OVC,OVC,0.00,WeatherDisplay:10.31,2013-01-02 04:25:00,
2013-01-01 23:30:00,39.1,27.2,29.96,NNW,344,2.0,6.0,62,0.00,OVC,OVC,0.00,WeatherDisplay:10.31,2013-01-02 04:30:00,
2013-01-01 23:35:00,39.1,27.2,29.97,NNW,336,1.0,7.0,62,0.00,OVC,OVC,0.00,WeatherDisplay:10.31,2013-01-02 04:35:00,
2013-01-01 23:40:00,38.9,27.0,29.95,NNW,336,5.0,6.0,62,0.00,OVC,OVC,0.00,WeatherDisplay:10.31,2013-01-02 04:40:00,
2013-01-01 23:50:00,38.9,27.0,29.95,NNW,348,5.0,10.0,62,0.00,OVC,OVC,0.00,WeatherDisplay:10.31,2013-01-02 04:50:00,
2013-01-01 23:55:00,38.8,26.9,29.95,North,360,2.0,8.0,62,0.00,OVC,OVC,0.00,WeatherDisplay:10.31,2013-01-02 04:55:00,